DHL269 KJFK-EDDM

Flight info

Callsign DHL269
Flight time N/A
Altitude 37000
Route MERIT DCT HFD DCT PUT DCT WITCH DCT ALLEX DCT LOPRO DCT UMESI/M085F380 DCT 5130N05000W 5330N04000W 5430N03000W 5430N02000W DCT NEBIN DCT OLGON/N0489F390 DCT MORAG DCT EMJEE DCT KONAN UL607 KOK DCT REMBA DCT SPI DCT MOVUM T109 HAREM/N0460F350 T104 ELMOX/N0416F270 T104 ROKIL ROKIL1A
Aircraft A388/J-SADE2E3FGHIJ3J4J5M1RWXY/LB1D1

Departure

Time 2026-05-09 12:45
Airport John F. Kennedy International Airport (KJFK)

Arrival

Time N/A
Airport Munich Airport (EDDM)
Time Latitude Longitude Altitude Speed Heading
2026-05-09 11:55 40.64038 -73.78293 25 ft 0 kts 61°
2026-05-09 12:12 40.64034 -73.78302 31 ft 2 kts 62°
2026-05-09 12:13 40.64028 -73.78316 29 ft 2 kts 63°
2026-05-09 12:13 40.64023 -73.78332 31 ft 2 kts 67°
2026-05-09 12:13 40.64020 -73.78348 31 ft 2 kts 79°
2026-05-09 12:13 40.64019 -73.78364 31 ft 2 kts 90°
2026-05-09 12:14 40.64022 -73.78380 31 ft 2 kts 104°
2026-05-09 12:14 40.64028 -73.78395 31 ft 2 kts 127°
2026-05-09 12:14 40.64037 -73.78405 31 ft 0 kts 148°
2026-05-09 12:24 40.64020 -73.78390 30 ft 8 kts 148°
2026-05-09 12:24 40.63962 -73.78345 31 ft 11 kts 151°
2026-05-09 12:24 40.63900 -73.78302 29 ft 5 kts 157°
2026-05-09 12:25 40.63856 -73.78286 29 ft 8 kts 170°
2026-05-09 12:25 40.63800 -73.78277 29 ft 8 kts 176°
2026-05-09 12:25 40.63740 -73.78271 29 ft 9 kts 176°
2026-05-09 12:25 40.63673 -73.78266 29 ft 10 kts 175°
2026-05-09 12:26 40.63605 -73.78257 28 ft 10 kts 174°
2026-05-09 12:26 40.63553 -73.78273 31 ft 7 kts 204°
2026-05-09 12:26 40.63520 -73.78270 27 ft 4 kts 144°
2026-05-09 12:26 40.63503 -73.78242 30 ft 9 kts 121°
2026-05-09 12:27 40.63466 -73.78163 29 ft 11 kts 122°
2026-05-09 12:27 40.63427 -73.78078 30 ft 11 kts 121°
2026-05-09 12:27 40.63392 -73.78002 31 ft 7 kts 113°
2026-05-09 12:27 40.63401 -73.77927 27 ft 6 kts 45°
2026-05-09 12:28 40.63421 -73.77902 30 ft 5 kts 40°
2026-05-09 12:28 40.63467 -73.77858 30 ft 12 kts 31°
2026-05-09 12:28 40.63552 -73.77790 31 ft 15 kts 31°
2026-05-09 12:28 40.63644 -73.77718 26 ft 16 kts 29°
2026-05-09 12:29 40.63742 -73.77642 27 ft 17 kts 31°
2026-05-09 12:29 40.63845 -73.77562 26 ft 17 kts 30°
2026-05-09 12:29 40.63951 -73.77479 29 ft 18 kts 31°
2026-05-09 12:29 40.64060 -73.77393 29 ft 18 kts 30°
2026-05-09 12:30 40.64169 -73.77308 30 ft 19 kts 31°
2026-05-09 12:30 40.64264 -73.77233 28 ft 15 kts 31°
2026-05-09 12:30 40.64348 -73.77166 26 ft 7 kts 31°
2026-05-09 12:31 40.64398 -73.77126 27 ft 9 kts 40°
2026-05-09 12:31 40.64453 -73.77008 30 ft 8 kts 20°
2026-05-09 12:31 40.64483 -73.76994 28 ft 0 kts 19°
2026-05-09 12:32 40.64484 -73.76994 27 ft 0 kts 20°
2026-05-09 12:33 40.64486 -73.76992 27 ft 2 kts 20°
2026-05-09 12:33 40.64492 -73.76990 26 ft 0 kts 20°
2026-05-09 12:35 40.64497 -73.76987 26 ft 7 kts 20°
2026-05-09 12:35 40.64533 -73.76969 28 ft 2 kts 33°
2026-05-09 12:35 40.64576 -73.76933 28 ft 9 kts 29°
2026-05-09 12:35 40.64610 -73.76908 29 ft 0 kts 30°
2026-05-09 12:36 40.64617 -73.76902 30 ft 0 kts 30°
2026-05-09 12:36 40.64619 -73.76901 28 ft 0 kts 30°
2026-05-09 12:36 40.64628 -73.76894 31 ft 8 kts 30°
2026-05-09 12:36 40.64653 -73.76875 26 ft 6 kts 29°
2026-05-09 12:37 40.64702 -73.76839 29 ft 9 kts 30°
2026-05-09 12:37 40.64763 -73.76792 28 ft 11 kts 32°
2026-05-09 12:37 40.64823 -73.76744 26 ft 8 kts 31°
2026-05-09 12:37 40.64870 -73.76707 26 ft 0 kts 30°
2026-05-09 12:38 40.64881 -73.76698 26 ft 5 kts 30°
2026-05-09 12:38 40.64919 -73.76668 26 ft 9 kts 31°
2026-05-09 12:38 40.64963 -73.76634 32 ft 8 kts 31°
2026-05-09 12:38 40.64979 -73.76621 31 ft 3 kts 31°
2026-05-09 12:39 40.65008 -73.76597 29 ft 7 kts 31°
2026-05-09 12:39 40.65025 -73.76584 31 ft 0 kts 31°
2026-05-09 12:39 40.65029 -73.76581 32 ft 0 kts 31°
2026-05-09 12:40 40.65065 -73.76552 26 ft 11 kts 31°
2026-05-09 12:41 40.65087 -73.76531 26 ft 0 kts 47°
2026-05-09 12:41 40.65091 -73.76524 26 ft 3 kts 57°
2026-05-09 12:41 40.65098 -73.76498 26 ft 1 kts 89°
2026-05-09 12:41 40.65098 -73.76496 26 ft 0 kts 89°
2026-05-09 12:42 40.65097 -73.76473 27 ft 5 kts 102°
2026-05-09 12:42 40.65083 -73.76432 27 ft 5 kts 125°
2026-05-09 12:42 40.65061 -73.76392 27 ft 6 kts 129°
2026-05-09 12:43 40.65031 -73.76368 27 ft 4 kts 175°
2026-05-09 12:43 40.65001 -73.76373 27 ft 4 kts 210°
2026-05-09 12:43 40.64996 -73.76376 27 ft 0 kts 211°
2026-05-09 12:43 40.64991 -73.76381 27 ft 10 kts 211°
2026-05-09 12:44 40.64717 -73.76594 29 ft 83 kts 211°
2026-05-09 12:44 40.64036 -73.77126 27 ft 142 kts 211°
2026-05-09 12:44 40.63065 -73.77884 52 ft 176 kts 210°
2026-05-09 12:44 40.61957 -73.78613 399 ft 182 kts 192°
2026-05-09 12:45 40.61107 -73.78652 567 ft 190 kts 168°
2026-05-09 12:45 40.59598 -73.77216 973 ft 224 kts 123°
2026-05-09 12:45 40.59208 -73.75862 1190 ft 247 kts 102°
2026-05-09 12:45 40.59577 -73.72719 1746 ft 282 kts 63°
2026-05-09 12:46 40.60343 -73.71316 2179 ft 287 kts 43°
2026-05-09 12:46 40.62022 -73.69910 2913 ft 284 kts 13°
2026-05-09 12:46 40.63933 -73.69371 3781 ft 281 kts
2026-05-09 12:46 40.65855 -73.68819 4409 ft 290 kts 11°
2026-05-09 12:47 40.67780 -73.67916 5120 ft 296 kts 20°
2026-05-09 12:47 40.69653 -73.66730 5824 ft 301 kts 25°
2026-05-09 12:47 40.71498 -73.65389 6471 ft 306 kts 27°
2026-05-09 12:47 40.73377 -73.63950 6885 ft 320 kts 28°
2026-05-09 12:48 40.75371 -73.62409 7004 ft 345 kts 29°
2026-05-09 12:48 40.77505 -73.60762 6994 ft 370 kts 28°
2026-05-09 12:48 40.79802 -73.58994 6982 ft 392 kts 29°
2026-05-09 12:48 40.82221 -73.57134 7114 ft 409 kts 28°
2026-05-09 12:49 40.84670 -73.55249 8061 ft 400 kts 28°
2026-05-09 12:49 40.87003 -73.53449 9247 ft 385 kts 28°
2026-05-09 12:49 40.89275 -73.51695 10358 ft 371 kts 27°
2026-05-09 12:49 40.91512 -73.49972 10943 ft 374 kts 27°
2026-05-09 12:50 40.93782 -73.48227 11496 ft 376 kts 27°
2026-05-09 12:50 40.96024 -73.46502 12085 ft 378 kts 27°
2026-05-09 12:50 40.98306 -73.44743 12667 ft 380 kts 26°
2026-05-09 12:50 41.00603 -73.42970 13301 ft 380 kts 26°
2026-05-09 12:51 41.02865 -73.41223 13865 ft 382 kts 26°
2026-05-09 12:51 41.05177 -73.39437 14325 ft 385 kts 26°
2026-05-09 12:51 41.07505 -73.37637 14796 ft 389 kts 26°
2026-05-09 12:51 41.09853 -73.35819 15255 ft 392 kts 26°
2026-05-09 12:52 41.12226 -73.33981 15722 ft 396 kts 25°
2026-05-09 12:52 41.14609 -73.32133 16238 ft 398 kts 25°
2026-05-09 12:52 41.17016 -73.30265 16701 ft 403 kts 25°
2026-05-09 12:52 41.19419 -73.28398 17220 ft 406 kts 25°
2026-05-09 12:53 41.21874 -73.26490 17738 ft 409 kts 25°
2026-05-09 12:53 41.24347 -73.24565 18242 ft 413 kts 25°
2026-05-09 12:53 41.26852 -73.22615 18705 ft 417 kts 25°
2026-05-09 12:53 41.29331 -73.20682 19179 ft 420 kts 24°
2026-05-09 12:54 41.31865 -73.18705 19653 ft 423 kts 24°
2026-05-09 12:54 41.34425 -73.16706 20129 ft 427 kts 24°
2026-05-09 12:54 41.36925 -73.14493 20600 ft 438 kts 34°
2026-05-09 12:54 41.39043 -73.11597 21155 ft 447 kts 47°
2026-05-09 12:55 41.40757 -73.08048 21543 ft 457 kts 56°
2026-05-09 12:55 41.42366 -73.04344 21957 ft 461 kts 56°
2026-05-09 12:55 41.43977 -73.00679 22397 ft 465 kts 55°
2026-05-09 12:55 41.45626 -72.96944 22802 ft 469 kts 55°
2026-05-09 12:56 41.47288 -72.93179 23149 ft 474 kts 54°
2026-05-09 12:56 41.48958 -72.89393 23565 ft 478 kts 54°
2026-05-09 12:56 41.50646 -72.85559 23951 ft 480 kts 54°
2026-05-09 12:56 41.52345 -72.81689 24357 ft 482 kts 54°
2026-05-09 12:57 41.54021 -72.77869 24739 ft 484 kts 54°
2026-05-09 12:57 41.55728 -72.73971 25150 ft 486 kts 54°
2026-05-09 12:57 41.57439 -72.70059 25516 ft 488 kts 54°
2026-05-09 12:57 41.59158 -72.66125 25871 ft 490 kts 54°
2026-05-09 12:58 41.60861 -72.62225 26164 ft 493 kts 54°
2026-05-09 12:58 41.62591 -72.58255 26532 ft 493 kts 55°
2026-05-09 12:58 41.64305 -72.54315 26874 ft 495 kts 54°
2026-05-09 12:58 41.66066 -72.50341 27168 ft 496 kts 53°
2026-05-09 12:59 41.67861 -72.46381 27497 ft 498 kts 53°
2026-05-09 12:59 41.69673 -72.42397 27811 ft 500 kts 53°
2026-05-09 12:59 41.71485 -72.38396 28152 ft 502 kts 53°
2026-05-09 12:59 41.73274 -72.34428 28472 ft 504 kts 53°
2026-05-09 13:00 41.75096 -72.30375 28779 ft 507 kts 53°
2026-05-09 13:00 41.76921 -72.26306 29080 ft 509 kts 53°
2026-05-09 13:00 41.78719 -72.22289 29434 ft 510 kts 53°
2026-05-09 13:00 41.80548 -72.18196 29796 ft 512 kts 53°
2026-05-09 13:01 41.82388 -72.14075 30127 ft 515 kts 53°
2026-05-09 13:01 41.84242 -72.09918 30282 ft 520 kts 53°
2026-05-09 13:01 41.86082 -72.05786 30626 ft 520 kts 53°
2026-05-09 13:01 41.87932 -72.01622 30944 ft 521 kts 53°
2026-05-09 13:02 41.89790 -71.97435 31224 ft 523 kts 53°
2026-05-09 13:02 41.91658 -71.93223 31531 ft 524 kts 53°
2026-05-09 13:02 41.93527 -71.89002 31814 ft 525 kts 53°
2026-05-09 13:02 41.95510 -71.84995 32125 ft 519 kts 45°
2026-05-09 13:03 41.97874 -71.81361 32433 ft 513 kts 37°
2026-05-09 13:03 42.00457 -71.78031 32674 ft 514 kts 36°
2026-05-09 13:03 42.03039 -71.74674 32997 ft 514 kts 36°
2026-05-09 13:03 42.05581 -71.71345 33292 ft 516 kts 36°
2026-05-09 13:04 42.08159 -71.67962 33574 ft 517 kts 36°
2026-05-09 13:04 42.10748 -71.64562 33862 ft 519 kts 36°
2026-05-09 13:04 42.13337 -71.61159 34141 ft 520 kts 36°
2026-05-09 13:04 42.15939 -71.57739 34312 ft 524 kts 36°
2026-05-09 13:05 42.18521 -71.54343 34502 ft 525 kts 36°
2026-05-09 13:05 42.21146 -71.50882 34781 ft 526 kts 36°
2026-05-09 13:05 42.23775 -71.47413 35011 ft 528 kts 36°
2026-05-09 13:05 42.26409 -71.43934 35238 ft 529 kts 36°
2026-05-09 13:06 42.29012 -71.40491 35487 ft 531 kts 37°
2026-05-09 13:06 42.31658 -71.36987 35733 ft 532 kts 37°
2026-05-09 13:06 42.34315 -71.33464 35973 ft 533 kts 37°
2026-05-09 13:06 42.36944 -71.29974 36199 ft 534 kts 37°
2026-05-09 13:07 42.39602 -71.26441 36392 ft 535 kts 37°
2026-05-09 13:07 42.42268 -71.22892 36637 ft 536 kts 37°
2026-05-09 13:07 42.44931 -71.19345 36841 ft 538 kts 37°
2026-05-09 13:07 42.47599 -71.15785 37065 ft 539 kts 37°
2026-05-09 13:08 42.50294 -71.12187 37059 ft 545 kts 38°
2026-05-09 13:08 42.55739 -71.04907 37059 ft 557 kts 38°
2026-05-09 13:09 42.61309 -70.97434 37058 ft 569 kts 38°
2026-05-09 13:09 42.66922 -70.89749 37065 ft 579 kts 42°
2026-05-09 13:10 42.71600 -70.81039 37051 ft 557 kts 52°
2026-05-09 13:10 42.73643 -70.76685 37052 ft 546 kts 51°
2026-05-09 13:10 42.75724 -70.72328 37045 ft 549 kts 51°
2026-05-09 13:11 42.79947 -70.63501 37047 ft 561 kts 51°
2026-05-09 13:11 42.84215 -70.54495 37048 ft 573 kts 52°
2026-05-09 13:12 42.88576 -70.45237 37065 ft 585 kts 52°
2026-05-09 13:12 42.92989 -70.35838 37052 ft 597 kts 52°
2026-05-09 13:13 42.97513 -70.26168 37057 ft 607 kts 52°
2026-05-09 13:13 42.99741 -70.21393 37776 ft 596 kts 53°
2026-05-09 13:13 43.01946 -70.16656 38647 ft 585 kts 53°
2026-05-09 13:13 43.04127 -70.11966 39067 ft 580 kts 54°
2026-05-09 13:14 43.06289 -70.07318 39377 ft 577 kts 54°
2026-05-09 13:14 43.08425 -70.02729 39605 ft 576 kts 54°
2026-05-09 13:16 43.23498 -69.70456 41040 ft 571 kts 54°
2026-05-09 13:16 43.25627 -69.65913 41222 ft 571 kts 54°
2026-05-09 13:16 43.27781 -69.61322 41377 ft 570 kts 54°
2026-05-09 13:16 43.29937 -69.56732 41536 ft 570 kts 54°
2026-05-09 13:17 43.32087 -69.52157 41697 ft 570 kts 54°
2026-05-09 13:17 43.34214 -69.47637 41891 ft 569 kts 54°
2026-05-09 13:17 43.36370 -69.43060 42047 ft 569 kts 54°
2026-05-09 13:17 43.38531 -69.38476 42196 ft 568 kts 54°
2026-05-09 13:18 43.40684 -69.33913 42334 ft 568 kts 54°
2026-05-09 13:18 43.42837 -69.29355 42459 ft 568 kts 54°
2026-05-09 13:18 43.44996 -69.24790 42586 ft 568 kts 54°
2026-05-09 13:18 43.47126 -69.20291 42749 ft 568 kts 54°
2026-05-09 13:19 43.49285 -69.15734 42901 ft 567 kts 54°
2026-05-09 13:19 43.51455 -69.11157 43028 ft 567 kts 54°
2026-05-09 13:19 43.53615 -69.06607 43153 ft 566 kts 54°
2026-05-09 13:19 43.55751 -69.02112 43267 ft 566 kts 54°
2026-05-09 13:20 43.57912 -68.97571 43376 ft 566 kts 54°
2026-05-09 13:20 43.60079 -68.93019 43498 ft 566 kts 54°
2026-05-09 13:20 43.62245 -68.88474 43667 ft 565 kts 54°
2026-05-09 13:20 43.64392 -68.83975 43781 ft 564 kts 54°
2026-05-09 13:21 43.66567 -68.79422 43872 ft 564 kts 54°
2026-05-09 13:21 43.70880 -68.70408 44043 ft 564 kts 54°
2026-05-09 13:22 43.75211 -68.61375 44259 ft 563 kts 54°
2026-05-09 13:22 43.77381 -68.56857 44368 ft 562 kts 54°
2026-05-09 13:22 43.79534 -68.52379 44455 ft 562 kts 54°
2026-05-09 13:23 43.88207 -68.34393 44735 ft 561 kts 54°
2026-05-09 13:23 43.90384 -68.29889 44811 ft 561 kts 54°
2026-05-09 13:24 43.94749 -68.20877 44927 ft 561 kts 54°
2026-05-09 13:24 43.99099 -68.11916 45010 ft 561 kts 54°
2026-05-09 13:25 44.03471 -68.02931 45119 ft 560 kts 54°
2026-05-09 13:25 44.07824 -67.94006 45231 ft 559 kts 54°
2026-05-09 13:26 44.10012 -67.89528 45260 ft 559 kts 54°
2026-05-09 13:26 44.14400 -67.80562 45329 ft 559 kts 54°
2026-05-09 13:27 44.18771 -67.71653 45470 ft 558 kts 54°
2026-05-09 13:27 44.23164 -67.62718 45531 ft 558 kts 54°
2026-05-09 13:28 44.27547 -67.53825 45563 ft 558 kts 54°
2026-05-09 13:28 44.31962 -67.44885 45636 ft 558 kts 54°
2026-05-09 13:29 44.36361 -67.36000 45670 ft 558 kts 54°
2026-05-09 13:29 44.40841 -67.27059 45471 ft 563 kts 53°
2026-05-09 13:29 44.43140 -67.22579 45356 ft 566 kts 53°
2026-05-09 13:30 44.45406 -67.18183 45533 ft 562 kts 52°
2026-05-09 13:30 44.47698 -67.13741 45687 ft 560 kts 52°
2026-05-09 13:30 44.49983 -67.09314 45771 ft 559 kts 52°
2026-05-09 13:31 44.54529 -67.00523 45809 ft 559 kts 52°
2026-05-09 13:31 44.59113 -66.91676 45842 ft 559 kts 52°
2026-05-09 13:32 44.63697 -66.82905 45695 ft 562 kts 52°
2026-05-09 13:32 44.70712 -66.69611 45766 ft 563 kts 58°
2026-05-09 13:33 44.72487 -66.64758 45700 ft 565 kts 69°
2026-05-09 13:33 44.73343 -66.61274 45665 ft 565 kts 76°
2026-05-09 13:33 44.74096 -66.55849 45532 ft 566 kts 86°
2026-05-09 13:33 44.74293 -66.48459 45114 ft 573 kts 89°
2026-05-09 13:34 44.74710 -66.42860 44974 ft 577 kts 78°
2026-05-09 13:34 44.75809 -66.37454 45188 ft 574 kts 68°
2026-05-09 13:34 44.78968 -66.29236 45065 ft 575 kts 51°
2026-05-09 13:35 44.84037 -66.20476 45032 ft 577 kts 49°
2026-05-09 13:35 44.89004 -66.11587 44991 ft 581 kts 51°
2026-05-09 13:36 44.93885 -66.02394 44937 ft 584 kts 52°
2026-05-09 13:36 44.98708 -65.93193 44874 ft 588 kts 52°
2026-05-09 13:37 45.01922 -65.87053 45833 ft 568 kts 52°
2026-05-09 13:37 45.03472 -65.84094 46213 ft 562 kts 52°
2026-05-09 13:37 45.05789 -65.79671 46493 ft 557 kts 52°
2026-05-09 13:37 45.08070 -65.75321 46567 ft 556 kts 52°
2026-05-09 13:38 45.12707 -65.66544 46442 ft 558 kts 51°
2026-05-09 13:38 45.15084 -65.62145 46276 ft 561 kts 51°
2026-05-09 13:38 45.17443 -65.57821 46382 ft 558 kts 51°
2026-05-09 13:39 45.19828 -65.53453 46523 ft 556 kts 51°
2026-05-09 13:39 45.22192 -65.49126 46578 ft 554 kts 51°
2026-05-09 13:39 45.26904 -65.40528 46529 ft 555 kts 51°
2026-05-09 13:40 45.29307 -65.36192 46396 ft 558 kts 50°
2026-05-09 13:40 45.31744 -65.31862 46311 ft 559 kts 50°
2026-05-09 13:40 45.34140 -65.27614 46486 ft 555 kts 50°
2026-05-09 13:40 45.36570 -65.23309 46517 ft 555 kts 50°
2026-05-09 13:41 45.41385 -65.14796 46510 ft 554 kts 50°
2026-05-09 13:41 45.46260 -65.06217 46414 ft 556 kts 50°
2026-05-09 13:42 45.48739 -65.01930 46216 ft 560 kts 49°
2026-05-09 13:42 45.51216 -64.97708 46184 ft 560 kts 49°
2026-05-09 13:42 45.53710 -64.93464 46358 ft 557 kts 49°
2026-05-09 13:42 45.56203 -64.89225 46466 ft 555 kts 49°
2026-05-09 13:43 45.61152 -64.80825 46498 ft 554 kts 49°
2026-05-09 13:43 45.66152 -64.72397 46328 ft 557 kts 48°
2026-05-09 13:44 45.68700 -64.68189 46148 ft 561 kts 47°
2026-05-09 13:44 45.71268 -64.63975 46292 ft 558 kts 47°
2026-05-09 13:44 45.73789 -64.59841 46435 ft 555 kts 47°
2026-05-09 13:44 45.76340 -64.55664 46511 ft 554 kts 47°
2026-05-09 13:45 45.81322 -64.47160 45827 ft 567 kts 55°
2026-05-09 13:45 45.85828 -64.38003 46256 ft 558 kts 54°
2026-05-09 13:46 45.88063 -64.33469 46411 ft 555 kts 54°
2026-05-09 13:46 45.90305 -64.28926 46427 ft 555 kts 54°
2026-05-09 13:46 45.94771 -64.19919 46333 ft 557 kts 53°
2026-05-09 13:47 45.97055 -64.15392 46134 ft 561 kts 53°
2026-05-09 13:47 45.99384 -64.10844 46126 ft 560 kts 53°
2026-05-09 13:47 46.01669 -64.06385 46315 ft 557 kts 53°
2026-05-09 13:47 46.03972 -64.01897 46406 ft 555 kts 53°
2026-05-09 13:48 46.08544 -63.93003 46477 ft 554 kts 53°
2026-05-09 13:48 46.13196 -63.84048 46257 ft 559 kts 52°
2026-05-09 13:49 46.15543 -63.79632 46143 ft 561 kts 52°
2026-05-09 13:49 46.17918 -63.75176 46343 ft 557 kts 51°
2026-05-09 13:49 46.20284 -63.70743 46479 ft 555 kts 52°
2026-05-09 13:49 46.22640 -63.66332 46539 ft 553 kts 52°
2026-05-09 13:50 46.27331 -63.57579 46483 ft 554 kts 51°
2026-05-09 13:50 46.29726 -63.53177 46304 ft 558 kts 51°
2026-05-09 13:50 46.32168 -63.48767 46205 ft 559 kts 50°
2026-05-09 13:51 46.34597 -63.44390 46384 ft 556 kts 50°
2026-05-09 13:51 46.36987 -63.40090 46534 ft 553 kts 51°
2026-05-09 13:51 46.41825 -63.31401 46557 ft 553 kts 50°
2026-05-09 13:52 46.44258 -63.27072 46432 ft 555 kts 50°
2026-05-09 13:52 46.46740 -63.22729 46237 ft 559 kts 49°
2026-05-09 13:52 46.51687 -63.14155 46511 ft 553 kts 50°
2026-05-09 13:53 46.56633 -63.05602 46605 ft 551 kts 49°
2026-05-09 13:53 46.61590 -62.97109 46411 ft 555 kts 49°